• Join FlightAware (Why Join?)
  • Login
  • US Flag 
12:04AM EST


 

Airport Tracker/Info


-or-


 

Live Flight TrackerFlight Track Log ✈ N559LC ✈ 27-Jul-2013 ✈ CYLW - KDTW

Flight Track Log - Related Links

Times and Time Zones

All times are in EDT time to prevent confusion due to time zone crossing. See the N559LC flight status page for this flight to view local times or setup timezone preferences in your user account.

Time Position Orientation Groundspeed Altitude Reporting Facility
EDT Latitude Longitude Course Direction KTS MPH feet Rate Location/Type
03:05AM 49.9167 -119.3667 171° South 170 196 2,900  Level Vancouver Center
03:06AM 49.8500 -119.3500 171° South 200 230 5,400 3,000 Climbing Vancouver Center
03:07AM 49.8333 -119.2667 107° East 220 253 8,900 2,640 Climbing Vancouver Center
03:08AM 49.8333 -119.1333 90° East 270 311 10,700 1,680 Climbing Vancouver Center
03:09AM 49.8167 -118.9833 100° East 360 414 12,300 1,920 Climbing Vancouver Center
03:10AM 49.8000 -118.8333 100° East 380 437 14,600 2,520 Climbing Vancouver Center
03:11AM 49.7833 -118.6500 98° East 390 449 17,400 2,520 Climbing Vancouver Center
03:12AM 49.7667 -118.4667 98° East 410 472 19,700 2,100 Climbing Vancouver Center
03:13AM 49.7500 -118.2833 98° East 420 483 21,700 2,100 Climbing Vancouver Center
03:14AM 49.7667 -118.1167 81° East 440 506 23,900 2,100 Climbing Vancouver Center
03:15AM 49.7667 -117.9333 90° East 450 518 25,900 1,920 Climbing Vancouver Center
03:16AM 49.8000 -117.7167 77° East 460 529 27,800 1,560 Climbing Vancouver Center
03:17AM 49.8000 -117.5167 90° East 480 552 29,100 1,440 Climbing Vancouver Center
03:18AM 49.8000 -117.3000 90° East 490 564 30,700 1,800 Climbing Vancouver Center
03:19AM 49.8333 -117.0833 77° East 500 575 32,700 1,920 Climbing Vancouver Center
03:20AM 49.8333 -116.8500 90° East 500 575 34,600 1,620 Climbing Vancouver Center
03:21AM 49.8333 -116.6500 90° East 500 575 36,000 1,260 Climbing Vancouver Center
03:22AM 49.8500 -116.4333 83° East 500 575 37,200 900 Climbing Vancouver Center
03:23AM 49.8500 -116.2333 90° East 500 575 37,800 360 Climbing Vancouver Center
03:24AM 49.8667 -116.0167 83° East 510 587 38,000 420 Climbing Vancouver Center
03:25AM 49.8833 -115.7833 84° East 510 587 38,700 600 Climbing Vancouver Center
03:26AM 49.8833 -115.5833 90° East 510 587 39,200 420 Climbing Vancouver Center
03:27AM 49.8833 -115.3667 90° East 510 587 39,600 480 Climbing Vancouver Center
03:28AM 49.9000 -115.1333 84° East 500 575 40,200 540 Climbing Vancouver Center
03:29AM 49.8833 -115.0500 107° East 500 575 40,500 480 Climbing Edmonton Center
03:30AM 49.9000 -114.8500 83° East 500 575 41,000 240 Climbing Edmonton Center
03:31AM 49.9000 -114.6167 90° East 500 575 41,000  Level Edmonton Center
03:32AM 49.9000 -114.4000 90° East 510 587 41,000  Level Edmonton Center
03:33AM 49.9000 -114.1667 90° East 510 587 41,000  Level Edmonton Center
03:34AM 49.9000 -113.9500 90° East 510 587 41,000  Level Edmonton Center
03:35AM 49.9167 -113.7500 83° East 510 587 41,000  Level Edmonton Center
03:36AM 49.9167 -113.5167 90° East 510 587 41,000  Level Edmonton Center
03:37AM 49.9167 -113.3000 90° East 510 587 41,000  Level Edmonton Center
03:38AM 49.9333 -113.0667 84° East 510 587 41,000  Level Edmonton Center
03:39AM 49.9333 -112.8333 90° East 510 587 41,000  Level Edmonton Center
03:40AM 49.9167 -112.6167 97° East 510 587 41,000  Level Edmonton Center
03:41AM 49.9333 -112.3833 84° East 520 598 41,000  Level Edmonton Center
03:42AM 49.9500 -112.2167 81° East 520 598 41,000  Level Winnipeg Center
03:43AM 49.9500 -111.9833 90° East 520 598 41,000  Level Winnipeg Center
03:44AM 49.9333 -111.7667 97° East 520 598 41,000  Level Winnipeg Center
03:45AM 49.9333 -111.5333 90° East 520 598 41,000  Level Winnipeg Center
03:46AM 49.9500 -111.3333 83° East 520 598 41,000  Level Winnipeg Center
03:47AM 49.9500 -111.0833 90° East 510 587 41,000  Level Winnipeg Center
03:48AM 49.9333 -110.8833 97° East 520 598 41,000  Level Winnipeg Center
03:49AM 49.9167 -110.6667 97° East 510 587 41,000  Level Winnipeg Center
03:50AM 49.8667 -110.4667 111° Southeast 500 575 41,000  Level Winnipeg Center
03:51AM 49.8333 -110.2333 102° East 500 575 41,000  Level Winnipeg Center
03:52AM 49.8000 -110.0500 106° East 500 575 41,000  Level Winnipeg Center
03:53AM 49.7500 -109.8333 110° East 510 587 41,000  Level Winnipeg Center
03:54AM 49.7167 -109.6000 102° East 520 598 41,000  Level Winnipeg Center
03:55AM 49.6667 -109.4167 113° Southeast 520 598 41,000  Level Winnipeg Center
03:56AM 49.6167 -109.2000 110° East 520 598 41,000  Level Winnipeg Center
03:57AM 49.6000 -108.9833 97° East 520 598 41,000  Level Winnipeg Center
03:58AM 49.5333 -108.7500 114° Southeast 530 610 41,000  Level Winnipeg Center
03:59AM 49.5000 -108.5333 103° East 530 610 41,000  Level Winnipeg Center
04:00AM 49.4500 -108.3167 109° East 530 610 41,000  Level Winnipeg Center
04:01AM 49.4167 -108.1000 103° East 530 610 41,000  Level Winnipeg Center
04:02AM 49.3667 -107.9167 113° Southeast 530 610 41,000  Level Winnipeg Center
04:03AM 49.3167 -107.6667 107° East 530 610 41,000  Level Winnipeg Center
04:04AM 49.2667 -107.4667 111° Southeast 520 598 41,000  Level Winnipeg Center
04:05AM 49.2333 -107.2500 103° East 530 610 41,000  Level Winnipeg Center
04:06AM 49.1833 -107.0333 109° East 530 610 41,000  Level Winnipeg Center
04:07AM 49.1333 -106.8500 113° Southeast 530 610 41,000  Level Winnipeg Center
04:08AM 49.0833 -106.6167 108° East 530 610 41,000  Level Winnipeg Center
04:09AM 49.0333 -106.4167 111° Southeast 530 610 41,000  Level Winnipeg Center
04:10AM 48.9833 -106.1833 108° East 530 610 41,000  Level Winnipeg Center
04:11AM 48.9333 -105.9833 111° Southeast 530 610 41,000  Level Winnipeg Center
04:12AM 48.8833 -105.7833 111° Southeast 520 598 41,000  Level Winnipeg Center
04:13AM 48.8333 -105.5667 109° East 520 598 41,000  Level Winnipeg Center
04:14AM 48.7833 -105.3500 109° East 520 598 41,000  Level Winnipeg Center
04:15AM 48.7500 -105.1667 105° East 520 598 41,000  Level Winnipeg Center
04:16AM 48.7000 -104.9500 109° East 520 598 41,000  Level Winnipeg Center
04:17AM 48.6333 -104.7500 117° Southeast 520 598 41,000  Level Winnipeg Center
04:18AM 48.5833 -104.5333 109° East 520 598 41,000  Level Winnipeg Center
04:19AM 48.5333 -104.3167 109° East 520 598 41,000  Level Winnipeg Center
04:20AM 48.4833 -104.1333 112° Southeast 530 610 41,000  Level Winnipeg Center
04:21AM 48.4333 -103.9000 108° East 520 598 41,000  Level Winnipeg Center
04:22AM 48.3833 -103.7167 112° Southeast 530 610 41,000  Level Winnipeg Center
04:22AM 48.3872 -103.6100 87° East 526 605 41,000  Level Minneapolis Center
04:23AM 48.3453 -103.3997 107° East 525 604 41,000  Level Minneapolis Center
04:24AM 48.3033 -103.1872 106° East 526 605 41,000  Level Salt Lake Center
04:25AM 48.2586 -102.9742 107° East 529 609 41,000  Level Salt Lake Center
04:26AM 48.2136 -102.7617 108° East 531 611 41,000  Level Salt Lake Center
04:27AM 48.1681 -102.5486 108° East 534 615 41,000  Level Salt Lake Center
04:28AM 48.1214 -102.3375 108° East 534 615 41,000  Level Salt Lake Center
04:29AM 48.0750 -102.1269 108° East 534 615 41,000  Level Salt Lake Center
04:30AM 48.0283 -101.9183 108° East 532 612 41,000  Level Salt Lake Center
04:31AM 47.9825 -101.7094 108° East 531 611 41,000  Level Salt Lake Center
04:32AM 47.9231 -101.4600 109° East 531 611 41,000  Level Minneapolis Center
04:33AM 47.8756 -101.2511 109° East 533 613 41,000  Level Minneapolis Center
04:34AM 47.8289 -101.0411 108° East 535 616 41,000  Level Minneapolis Center
04:35AM 47.7836 -100.8467 109° East 533 613 41,000  Level Minneapolis Center
04:36AM 47.7350 -100.6392 109° East 534 615 41,000  Level Minneapolis Center
04:37AM 47.6881 -100.4342 109° East 530 610 41,000  Level Minneapolis Center
04:38AM 47.6389 -100.2297 110° East 529 609 41,000  Level Minneapolis Center
04:39AM 47.5894 -100.0247 110° East 529 609 41,000  Level Minneapolis Center
04:40AM 47.5372 -99.8197 111° Southeast 532 612 41,000  Level Minneapolis Center
04:41AM 47.4878 -99.6153 110° East 532 612 41,000  Level Minneapolis Center
04:42AM 47.4386 -99.4133 110° East 530 610 41,000  Level Minneapolis Center
04:43AM 47.3756 -99.1692 111° Southeast 531 611 41,000  Level Minneapolis Center
04:44AM 47.3236 -98.9658 111° Southeast 532 612 41,000  Level Minneapolis Center
04:45AM 47.2722 -98.7658 111° Southeast 529 609 41,000  Level Minneapolis Center
04:46AM 47.2208 -98.5650 111° Southeast 529 609 41,000  Level Minneapolis Center
04:47AM 47.1689 -98.3686 111° Southeast 525 604 41,000  Level Minneapolis Center
04:48AM 47.1175 -98.1703 111° Southeast 525 604 41,000  Level Minneapolis Center
04:49AM 47.0644 -97.9747 112° Southeast 524 603 41,000  Level Minneapolis Center
04:50AM 47.0128 -97.7769 111° Southeast 526 605 41,000  Level Minneapolis Center
04:52AM 46.9581 -97.5772 112° Southeast 532 612 41,000  Level Minneapolis Center
04:53AM 46.9050 -97.3811 112° Southeast 524 603 41,000  Level Minneapolis Center
04:54AM 46.8514 -97.1869 112° Southeast 521 600 41,000  Level Minneapolis Center
04:55AM 46.7983 -96.9928 112° Southeast 518 596 41,000  Level Minneapolis Center
04:56AM 46.7442 -96.7981 112° Southeast 519 597 41,000  Level Minneapolis Center
04:57AM 46.6769 -96.5639 113° Southeast 523 602 41,000  Level Minneapolis Center
04:58AM 46.6114 -96.3300 112° Southeast 522 601 41,000  Level Minneapolis Center
04:59AM 46.5564 -96.1364 112° Southeast 521 600 41,000  Level Minneapolis Center
05:00AM 46.5003 -95.9431 113° Southeast 522 601 41,000  Level Minneapolis Center
05:01AM 46.4464 -95.7575 113° Southeast 520 598 41,000  Level Minneapolis Center
05:02AM 46.3892 -95.5650 113° Southeast 520 598 41,000  Level Minneapolis Center
05:03AM 46.3322 -95.3697 113° Southeast 518 596 41,000  Level Minneapolis Center
05:04AM 46.2758 -95.1789 113° Southeast 519 597 41,000  Level Minneapolis Center
05:05AM 46.2178 -94.9875 114° Southeast 522 601 41,000  Level Minneapolis Center
05:06AM 46.1644 -94.8056 113° Southeast 523 602 41,000  Level Minneapolis Center
05:07AM 46.1053 -94.6158 114° Southeast 522 601 41,000  Level Minneapolis Center
05:08AM 46.0475 -94.4267 114° Southeast 519 597 41,000  Level Minneapolis Center
05:09AM 45.9903 -94.2414 114° Southeast 512 589 41,000  Level Minneapolis Center
05:10AM 45.9333 -94.0542 114° Southeast 511 588 41,000  Level Minneapolis Center
05:11AM 45.8747 -93.8689 114° Southeast 511 588 41,000  Level Minneapolis Center
05:12AM 45.8033 -93.6433 114° Southeast 516 594 41,000  Level Minneapolis Center
05:13AM 45.7436 -93.4572 115° Southeast 515 593 41,000  Level Minneapolis Center
05:14AM 45.6833 -93.2703 115° Southeast 516 594 41,000  Level Minneapolis Center
05:15AM 45.6236 -93.0831 114° Southeast 516 594 41,000  Level Minneapolis Center
05:16AM 45.5639 -92.8950 114° Southeast 518 596 41,000  Level Minneapolis Center
05:17AM 45.5144 -92.7033 110° East 517 595 41,000  Level Minneapolis Center
05:18AM 45.4667 -92.5114 109° East 514 592 41,000  Level Minneapolis Center
05:19AM 45.4183 -92.3222 110° East 510 587 41,000  Level Minneapolis Center
05:20AM 45.3717 -92.1350 109° East 504 580 41,000  Level Minneapolis Center
05:21AM 45.3247 -91.9469 109° East 504 580 41,000  Level Minneapolis Center
05:22AM 45.2753 -91.7597 111° Southeast 506 582 41,000  Level Minneapolis Center
05:23AM 45.2264 -91.5739 110° East 504 580 41,000  Level Minneapolis Center
05:24AM 45.1783 -91.3872 110° East 504 580 41,000  Level Minneapolis Center
05:25AM 45.1358 -91.2250 110° East 505 581 41,000  Level Minneapolis Center
05:26AM 45.0814 -91.0144 110° East 505 581 41,000  Level Minneapolis Center
05:27AM 45.0283 -90.8183 111° Southeast 502 578 41,000  Level Minneapolis Center
05:28AM 44.9789 -90.6322 111° Southeast 506 582 41,000  Level Minneapolis Center
05:29AM 44.9278 -90.4478 111° Southeast 507 583 41,000  Level Minneapolis Center
05:30AM 44.8781 -90.2608 111° Southeast 510 587 41,000  Level Minneapolis Center
05:31AM 44.8267 -90.0764 111° Southeast 509 586 41,000  Level Minneapolis Center
05:32AM 44.7806 -89.9094 111° Southeast 509 586 41,000  Level Minneapolis Center
05:33AM 44.7281 -89.7253 112° Southeast 509 586 41,000  Level Minneapolis Center
05:34AM 44.6767 -89.5397 111° Southeast 510 587 41,000  Level Minneapolis Center
05:35AM 44.6247 -89.3556 112° Southeast 507 583 41,000  Level Minneapolis Center
05:36AM 44.5725 -89.1722 112° Southeast 505 581 41,000  Level Minneapolis Center
05:37AM 44.5200 -88.9881 112° Southeast 506 582 41,000  Level Minneapolis Center
05:38AM 44.4664 -88.8067 112° Southeast 504 580 41,000  Level Minneapolis Center
05:39AM 44.4125 -88.6217 112° Southeast 508 585 41,000  Level Minneapolis Center
05:40AM 44.3592 -88.4367 112° Southeast 512 589 41,000  Level Minneapolis Center
05:41AM 44.3053 -88.2544 112° Southeast 508 585 41,000  Level Minneapolis Center
05:42AM 44.2322 -88.0094 113° Southeast 509 586 41,000  Level Minneapolis Center
05:43AM 44.1672 -87.7967 113° Southeast 509 586 41,000  Level Minneapolis Center
05:45AM 44.1119 -87.6136 113° Southeast 508 585 41,000  Level Minneapolis Center
05:46AM 44.0569 -87.4350 113° Southeast 504 580 41,000 -180 Level Minneapolis Center
05:47AM 44.0019 -87.2542 113° Southeast 505 581 40,700 -720 Descending Minneapolis Center
05:48AM 43.9525 -87.0981 114° Southeast 511 588 39,600 -1,380 Descending Minneapolis Center
05:49AM 43.8939 -86.9086 113° Southeast 530 610 38,000 -2,160 Descending Minneapolis Center
05:49AM 43.8367 -86.7253 113° Southeast 522 601 35,500 -2,880 Descending Chicago Center
05:50AM 43.7786 -86.5464 114° Southeast 512 589 32,500 -2,280 Descending Chicago Center
05:51AM 43.7225 -86.3664 113° Southeast 508 585 31,000 -780 Descending Chicago Center
05:52AM 43.6664 -86.1931 114° Southeast 497 572 31,000  Level Chicago Center
05:53AM 43.6100 -86.0178 114° Southeast 498 573 31,000 -240 Level Chicago Center
05:54AM 43.5522 -85.8400 114° Southeast 504 580 30,600 -900 Descending Chicago Center
05:55AM 43.4944 -85.6633 114° Southeast 504 580 29,200 -1,560 Descending Chicago Center
05:56AM 43.4386 -85.4917 114° Southeast 493 567 27,500 -1,860 Descending Chicago Center
05:57AM 43.3833 -85.3242 114° Southeast 481 554 25,500 -1,980 Descending Chicago Center
05:58AM 43.3297 -85.1631 115° Southeast 467 537 23,600 -1,260 Descending Chicago Center
06:00AM 43.2756 -85.0050 115° Southeast 460 529 23,000 -420 Descending Chicago Center
06:01AM 43.2225 -84.8450 114° Southeast 460 529 22,800 -1,200 Descending Chicago Center
06:02AM 43.1578 -84.7033 122° Southeast 444 511 20,700 -2,160 Descending Chicago Center
06:03AM 43.0767 -84.5817 132° Southeast 435 501 18,500 -2,040 Descending Chicago Center
06:04AM 43.0011 -84.4683 132° Southeast 410 472 16,700 -1,800 Descending Chicago Center
06:05AM 42.9289 -84.3628 133° Southeast 386 444 15,000 -1,680 Descending Chicago Center
06:05AM 42.8639 -84.2714 134° Southeast 349 402 13,700 -1,560 Descending Cleveland Center
06:06AM 42.8003 -84.1744 132° Southeast 344 396 12,200 -1,380 Descending Cleveland Center
06:07AM 42.7403 -84.0861 133° Southeast 348 400 11,100 -840 Descending Cleveland Center
06:08AM 42.6983 -84.0300 135° Southeast 346 398 11,000 -180 Descending Cleveland Center
06:09AM 42.6303 -83.9303 133° Southeast 351 404 10,900 -660 Descending Cleveland Center
06:10AM 42.5772 -83.8231 124° Southeast 351 404 9,700 -1,380 Descending Cleveland Center
06:10AM 42.5517 -83.7656 121° Southeast 302 348 8,800 -1,800 Descending Cleveland Center
06:12AM 42.5064 -83.6644 121° Southeast 298 343 6,700 -1,980 Descending Cleveland Center
06:12AM 42.4672 -83.5753 121° Southeast 290 334 4,900 -1,920 Descending Cleveland Center
06:13AM 42.4236 -83.4806 122° Southeast 284 327 3,100 -1,020 Descending Cleveland Center
06:14AM 42.3922 -83.4086 121° Southeast 241 277 3,000 -60 Descending Cleveland Center
06:15AM 42.3606 -83.3342 120° Southeast 186 214 3,000  Level Cleveland Center
06:17AM 42.3244 -83.2792 132° Southeast 175 201 3,000 -420 Level Cleveland Center
06:18AM 42.2781 -83.2942 193° South 150 173 2,100 -840 Descending Cleveland Center
06:19AM 42.2506 -83.3125 206° Southwest 122 140 1,400 -780 Descending Cleveland Center